Location: Asheville, NC
(35.6000°N, 82.5500°W)
Time: 01:46:57
(UTC-05:00)

Tiangong 2 - Pass Details

Date: 15 February 2018
Orbit: 384 x 388 km, 42.8° (Epoch: 21 February)

Event Time Altitude Azimuth Distance (km) Brightness Sun altitude
Rises 20:01:24 0° 294° (WNW) 2,258 6.1 -22.8°
Reaches altitude 10° 20:03:47 10° 310° (NW) 1,404 4.6 -23.3°
Enters shadow 20:05:09 18° 332° (NNW) 1,037 3.5 -23.5°
